STARLINK-1230 (45189 NORAD) Tracking and Keplerian Element Data

This shows tracking and keplerian element data for the satellite.

Feedback or suggestion? Click here.




ElementValue
Catalog45189
NameSTARLINK-1230
Epoch Orbit2184
Epoch Day190.25001157
Epoch Year2020
RAAN341.1825
Inclination52.9989
Eccentricity0.0001262
Argument of Perigee110.4635
Mean Anonmoly121.6419
Mean Motion15.05549842
Decay Rate0.00031353
L11 45189U 20012M 20190.25001157 .00031353 00000-0 21632-2 0 9996
L22 45189 52.9989 341.1825 0001262 110.4635 121.6419 15.05549842 21848

Live tracking and technical data element details for STARLINK-1230 (NORAD 45189). STARLINK-1230 can be tracked NOW for your location showing map with azimuth and elevation plus other details from your city location.

Track the satellite on the map from your city or location and see movement details for azimuth, elevation, latitude, longitude, range, height, and movement on the map or in text.







IsCatalogInMostPopularTable: catalog: 45189, numindb: 26
Update: records affected: 1



GetName: 45189 STARLINK-1230

Hit Count: updated at: Thu, 09 Jul 2020 01:02:18 GMT